Location: Splawn
(30.9202°N, 96.9858°W)
Time: 01:00:46
(UTC+00:00)

Transit 2A Rocket - Pass Details

Date: 29 February 2020
Orbit: 588 x 915 km, 66.7° (Epoch: 08 April)

Event Time Altitude Azimuth Distance (km) Brightness Sun altitude
Rises 02:58:35 0° 216° (SW) 2,806 8.2 -33.5°
Enters shadow 02:59:52 - 219° (SW) 2,293 7.8 -33.8°
Reaches altitude 10° 03:00:51 10° 222° (SW) 1,904 - -34.0°
Maximum altitude 03:04:58 49° 298° (WNW) 765 - -34.8°
Drops below altitude 10° 03:09:13 10° 14° (NNE) 1,965 - -35.7°
Sets 03:11:35 0° 19° (NNE) 2,906 - -36.2°
